Regional Weather Roundup
Issued by NWS

Home | Current Version | Previous Version | Text Only | Print | Product List | Glossary Off
Versions: 1 2 3 4 5 6 7 8 9 10 11 12 13 14 15 16 17 18 19 20 21 22 23 24 25 26 27

000
ASUS45 KSLC 162110
RWRUT

UTAH REGIONAL WEATHER ROUNDUP
NATIONAL WEATHER SERVICE SALT LAKE CITY UT
300 PM MDT WED AUG 16 2017

UTZ001>011-023>025-162200-

NORTHERN UTAH

CITY           SKY/WX    TMP DP  RH WIND       PRES   REMARKS
BRIGHAM CITY   SUNNY     84  28  13 CALM      30.06F
DUGWAY         MOSUNNY   88  31  13 W6        30.03F
HILL AFB       MOSUNNY   82  37  19 CALM      30.09F
LOGAN          SUNNY     84  37  18 SE3       30.06F
OGDEN          SUNNY     84  35  17 VRB5      30.06F
SALT LAKE CITY MOSUNNY   87  37  17 N8        30.04F
TOOELE VALLEY  MOSUNNY   86  37  17 N13G18    30.06S
WENDOVER       MOSUNNY   85  34  16 SE8       30.04F
HEBER CITY     MOSUNNY   79  32  18 W8        30.12F
WEST JORDAN    MOSUNNY   82  49  31 N5        30.08F

$$

UTZ011>015-024>027-162200-

CENTRAL/NORTHEAST UTAH

CITY           SKY/WX    TMP DP  RH WIND       PRES   REMARKS
PROVO AIRPORT  MOSUNNY   82  35  18 W6        30.08F
MOAB/CANYONLAN SUNNY     87  32  14 CALM      30.03F
DELTA          SUNNY     82  32  16 SW8       30.07F
PRICE          MOSUNNY   79  33  19 VRB6      30.13F
ROOSEVELT      SUNNY     79  36  21 SE3       30.13F
VERNAL         SUNNY     78  46  32 VRB6      30.13F

$$

UTZ013>016-019>022-027-162200-

SOUTHERN UTAH

CITY           SKY/WX    TMP DP  RH WIND       PRES   REMARKS
BRYCE CANYON   MOSUNNY   75  30  19 SW12      30.27S
CEDAR CITY     MOSUNNY   82  32  16 S9        30.11F
MILFORD        MOSUNNY   87  30  13 S6        30.06F
ST GEORGE      PTCLDY    94  36  13 SE8       29.94F
HANKSVILLE     MOSUNNY   88  32  13 SE6       30.05F
BLANDING       MOSUNNY   82  29  14 SW5       30.22F

$$

REGIONAL REPORTS     COLORADO/ARIZONA

CITY           SKY/WX    TMP DP  RH WIND       PRES   REMARKS
CRAIG, CO      SUNNY     78  31  17 W12G21    30.18F
GRAND JUNCTION SUNNY     86  31  13 W9        30.06F
RIFLE, CO      MOSUNNY   84  36  18 N13       30.10F
MONTROSE, CO   SUNNY     80  34  19 NE7       30.14F
CORTEZ, CO     SUNNY     82  26  13 W9G26     30.15F
COLORADO CITY    N/A     90  32  12 S10G22    30.12S
PAGE, AZ       SUNNY     90  28  11 NE6       30.03F
GRAND CANYON   MOSUNNY   78  31  17 S10       30.23F
KINGMAN, AZ    SUNNY     90  39  16 W10G17    30.01F
FLAGSTAFF, AZ  MOSUNNY   71  32  23 S14       30.28F

$$

REGIONAL REPORTS    NEVADA/IDAHO/WYOMING

CITY           SKY/WX    TMP DP  RH WIND       PRES   REMARKS
LAS VEGAS, NV  MOSUNNY   96  38  13 SE9G16    29.90F HX  91
ELY, NY        CLOUDY    76  36  23 CALM      30.18F
ELKO, NV       PTSUNNY   83  29  14 SW6       30.09F
POCATELLO, ID  MOSUNNY   83  36  18 W14       30.06F
BURLEY, ID     MOSUNNY   82  41  23 W12       30.03F
FORT BRIDGER,    N/A     75  28  17 SW7       30.24F
EVANSTON, WY   CLOUDY    71  35  26 N7        30.23S
ROCK SPRINGS,  PTSUNNY   74  37  26 SW9       30.20F
KEMMERER, WY     N/A    N/A N/A N/A W5        30.24F

$$




USA.gov is the U.S. government's official web portal to all federal, state and local government web resources and services.